DW4362 Weather Reports


time (UTC)temp
C
wind
direction
speed
KPH
gust
KPH
rain 1hr
cm
rain 24hr
cm
rain mn
cm
humidity
%
barometer
mb
20260506160137 26 163 0.0 3.2 0.00 0.00 0.00 81 1015.1
20260506154637 25 143 3.2 8.0 0.00 0.00 0.00 83 1015.2
20260506153136 25 154 4.8 14.5 0.00 0.00 0.00 85 1015.1
20260506151636 24 239 3.2 8.0 0.00 0.00 0.00 87 1014.8
20260506150136 24 173 8.0 8.0 0.00 0.00 0.00 87 1014.7
20260506144636 24 142 8.0 17.7 0.00 0.00 0.00 87 1014.7
20260506143135 24 191 4.8 4.8 0.00 0.00 0.00 87 1014.6
20260506141635 24 205 3.2 12.9 0.00 0.00 0.00 87 1014.4
20260506140205 24 154 0.0 4.8 0.00 0.00 0.00 87 1014.3
20260506134635 23 206 0.0 4.8 0.00 0.00 0.00 89 1014.1
20260506133134 23 194 0.0 0.0 0.00 0.00 0.00 91 1014.1
20260506131704 23 205 0.0 3.2 0.00 0.00 0.00 93 1014.0
20260506130204 22 162 3.2 3.2 0.00 0.00 0.00 94 1013.8
20260506123203 21 163 0.0 0.0 0.00 0.00 0.00 94 1013.5
20260506121703 21 202 4.8 4.8 0.00 0.00 0.00 94 1013.2
20260506120202 21 196 0.0 0.0 0.00 0.00 0.00 94 1013.0
20260506114702 20 168 0.0 3.2 0.00 0.00 0.00 94 1012.7
20260506113202 20 158 0.0 0.0 0.00 0.00 0.00 94 1012.5
20260506111702 20 214 0.0 0.0 0.00 0.00 0.00 94 1012.2
20260506104701 20 127 0.0 3.2 0.00 0.00 0.00 94 1011.6
20260506103201 20 214 0.0 3.2 0.00 0.00 0.00 94 1011.6
20260506101701 20 155 0.0 0.0 0.00 0.00 0.00 94 1011.4
20260506100200 20 204 0.0 4.8 0.00 0.00 0.00 94 1011.2
20260506094700 20 179 0.0 0.0 0.00 0.00 0.00 94 1011.2
20260506093200 19 162 0.0 0.0 0.00 0.00 0.00 94 1011.2
20260506091700 19 155 0.0 0.0 0.00 0.00 0.00 94 1011.3
20260506090159 18 167 0.0 0.0 0.00 0.00 0.00 94 1011.3
20260506084659 18 167 0.0 0.0 0.00 0.00 0.00 94 1011.6
20260506083159 18 167 0.0 0.0 0.00 0.00 0.00 94 1011.7
20260506081659 18 167 0.0 0.0 0.00 0.00 0.00 94 1011.7
20260506080158 18 185 0.0 0.0 0.00 0.00 0.00 94 1011.9
20260506073158 18 208 0.0 0.0 0.00 0.00 0.00 94 1012.0
20260506070157 18 208 0.0 0.0 0.00 0.00 0.00 94 1012.2
20260506061657 18 148 0.0 0.0 0.00 0.00 0.00 94 1012.4
20260506060156 18 172 0.0 0.0 0.00 0.00 0.00 94 1012.6
20260506044655 17 171 0.0 0.0 0.00 0.00 0.00 95 1013.3
20260506043155 17 171 0.0 0.0 0.00 0.00 0.00 95 1013.3
20260506041655 17 171 0.0 0.0 0.00 0.00 0.00 95 1013.3
20260506034654 18 171 0.0 0.0 0.00 0.00 0.00 94 1013.5
20260506033154 18 172 0.0 0.0 0.00 0.00 0.00 94 1013.6
20260506031654 18 172 0.0 0.0 0.00 0.00 0.00 93 1013.8
20260506030153 18 172 0.0 0.0 0.00 0.00 0.00 92 1013.7
20260506024653 18 172 0.0 0.0 0.00 0.00 0.00 91 1013.6
20260506023153 19 171 0.0 0.0 0.00 0.00 0.00 90 1013.5
20260506021653 20 171 0.0 0.0 0.00 0.00 0.00 89 1013.3
20260506020152 20 171 0.0 0.0 0.00 0.00 0.00 88 1013.1
20260506014652 20 174 0.0 0.0 0.00 0.00 0.00 87 1013.2
20260506013152 21 173 0.0 0.0 0.00 0.00 0.00 85 1013.3
20260506011651 21 161 0.0 0.0 0.00 0.00 0.00 84 1013.2
20260506010151 21 213 4.8 4.8 0.00 0.00 0.00 83 1013.1
20260506004651 21 128 3.2 8.0 0.00 0.00 0.00 82 1012.8
20260506003151 22 160 0.0 0.0 0.00 0.00 0.00 81 1012.8
20260506001651 22 189 0.0 3.2 0.00 0.00 0.00 79 1012.8
20260506000150 22 189 0.0 0.0 0.00 0.00 0.00 77 1012.9
20260505234650 22 190 4.8 4.8 0.00 0.00 0.00 75 1012.9
20260505233150 23 174 4.8 8.0 0.00 0.00 0.00 73 1012.9
20260505231649 23 165 4.8 4.8 0.00 0.00 0.00 72 1012.6
20260505230150 23 215 0.0 8.0 0.00 0.00 0.00 74 1012.7
20260505221649 23 199 12.9 17.7 0.00 0.00 0.00 71 1012.5
20260505220149 24 229 3.2 8.0 0.00 0.00 0.00 70 1012.5
20260505214648 25 162 3.2 12.9 0.00 0.00 0.00 69 1012.7
20260505213148 25 167 12.9 14.5 0.00 0.00 0.00 68 1012.8
20260505211647 25 181 8.0 8.0 0.00 0.00 0.00 68 1012.6
20260505210147 25 143 8.0 14.5 0.00 0.00 0.00 70 1012.7
20260505204647 25 151 8.0 14.5 0.00 0.00 0.00 68 1012.8
20260505203147 25 178 8.0 12.9 0.00 0.00 0.00 67 1013.0
20260505201647 25 166 8.0 12.9 0.00 0.00 0.00 66 1013.0
20260505194646 25 149 4.8 9.7 0.00 0.00 0.00 67 1013.3
20260505193146 25 210 4.8 14.5 0.00 0.00 0.00 68 1013.2
20260505191645 25 167 8.0 9.7 0.00 0.00 0.00 69 1013.5
20260505184645 25 216 4.8 14.5 0.00 0.00 0.00 69 1013.8
20260505183145 26 178 9.7 9.7 0.00 0.00 0.00 68 1014.0
20260505181645 25 190 4.8 9.7 0.00 0.00 0.00 70 1014.2
20260505180144 25 155 9.7 9.7 0.00 0.00 0.00 68 1014.0
20260505174644 25 149 8.0 8.0 0.00 0.00 0.00 70 1014.0
20260505173144 25 159 8.0 12.9 0.00 0.00 0.00 67 1013.8
20260505171644 26 203 8.0 17.7 0.00 0.00 0.00 66 1013.9
20260505170144 25 184 9.7 14.5 0.00 0.00 0.00 67 1014.0
20260505164643 25 195 4.8 14.5 0.00 0.00 0.00 68 1014.3
20260505163143 25 278 0.0 4.8 0.00 0.00 0.00 69 1014.3
20260505161643 25 203 3.2 12.9 0.00 0.00 0.00 68 1014.4